User: anonymous
Location: Oshawa
(43.9000°N, 78.8670°W)
Time: 20:51:23
(UTC-04:00)
Language:

Envisat - Orbit

View from above orbital plane
View from above orbital plane
View from above satellite
View from above satellite

Ground track
Ground track

The orbit data is extracted from the following two-line orbital elements,

1 27386U 02009A   14258.43196622  .00000050  00000-0  30657-4 0  4524
2 27386 098.3745 321.5283 0001291 104.2203 024.2029 14.37730787656545
Epoch (UTC): 15 September 2014 10:22:01
Eccentricity: 0.0001291
inclination: 98.3745°
perigee height: 765 km
apogee height: 767 km
right ascension of ascending node: 321.5283°
argument of perigee: 104.2203°
revolutions per day: 14.37730787
mean anomaly at epoch: 24.2029°
orbit number at epoch: 65654

The dashed part of the orbit path shows where the satellite is in the earth's shadow,  

DLR